RH
82 84 89 92 93 96 96 95 94 91 91 92 91 88 86 84 82 80 80 82 86 91 96 97 90 83 83 85 84 85 89 93 97 99 100 100 100 100 100 100 100 99
80 79 83 87 89 91 89 89 90 87 86 89 87 82 81 81 80 80 79 79 81 85 91 97 94 81 76 80 78 75 77 80 85 92 93 94 97 98 98 99 100 100
79 79 82 85 87 87 85 83 83 84 85 86 84 80 79 79 81 82 81 79 81 84 88 95 99 88 74 73 74 72 72 69 70 75 77 81 87 91 93 94 96 99
80 82 82 82 85 85 84 83 79 79 84 85 84 83 80 78 81 83 83 82 82 84 85 90 100 98 83 72 70 73 74 69 68 65 60 62 68 74 80 84 87 92
80 82 80 79 83 80 77 80 80 78 81 82 82 82 81 79 82 86 88 88 86 86 85 85 92 99 96 84 74 75 77 75 75 69 60 58 57 57 62 66 70 76
75 77 78 78 80 75 70 75 79 80 83 82 79 79 80 80 82 86 91 93 92 91 89 87 88 93 100 95 84 81 83 81 79 72 65 65 62 56 54 52 53 57
74 74 74 73 75 72 69 69 69 73 79 78 77 79 78 78 79 81 87 93 95 95 94 94 93 94 99 100 93 88 89 87 82 75 69 67 64 61 60 56 51 49
75 75 71 69 71 69 67 65 63 65 68 68 72 76 76 78 79 77 80 86 92 96 95 96 98 98 99 101 98 92 90 88 84 82 79 73 67 63 64 65 59 54
76 76 72 69 71 70 66 63 61 62 61 63 70 71 70 75 77 77 77 78 86 95 96 95 97 99 99 101 100 92 89 87 82 83 87 88 86 75 66 67 64 60
79 77 74 72 73 72 69 64 60 58 57 60 66 66 65 69 71 74 76 74 80 91 98 98 97 99 100 101 100 94 91 89 83 81 83 88 95 93 78 70 69 65
81 80 77 75 74 71 68 65 60 57 54 55 61 63 63 65 66 68 73 74 75 84 96 102 100 100 101 100 100 97 93 91 87 83 82 81 85 95 93 80 75 73
86 87 84 79 76 71 66 63 59 56 54 55 59 61 59 62 64 63 67 72 72 77 90 100 102 101 101 101 100 99 94 91 88 84 86 84 77 84 99 92 82 82
88 91 88 80 77 72 64 61 58 58 59 55 58 61 59 63 66 61 61 67 68 71 80 92 100 99 100 101 100 100 95 88 87 85 86 89 79 76 90 94 87 88
86 88 84 76 73 68 62 58 57 60 63 60 61 65 66 74 76 62 55 60 63 64 69 81 93 96 98 101 100 100 96 86 86 86 83 84 81 74 77 83 83 86
86 86 83 74 68 68 65 63 63 65 68 71 73 72 73 84 87 69 55 56 56 57 61 67 78 87 94 100 101 100 97 91 87 85 82 82 82 76 71 74 77 75
85 83 82 72 69 73 70 70 76 76 78 85 86 81 80 89 94 84 72 65 55 52 55 56 62 70 79 95 103 100 100 98 92 86 84 83 83 79 70 69 72 67
88 85 82 74 74 76 71 74 81 79 84 94 94 92 93 93 95 95 93 85 68 56 50 49 53 53 61 87 103 101 101 102 97 91 84 82 84 83 78 72 69 67
91 89 87 83 83 82 78 80 82 81 89 94 89 93 101 99 95 97 101 95 84 72 56 49 51 44 52 86 104 100 102 102 100 94 84 83 85 83 85 82 73 77
92 89 87 86 88 87 86 85 82 86 96 93 86 94 102 100 97 100 101 96 92 91 75 61 54 39 49 89 105 99 101 102 100 92 82 86 87 80 85 85 79 91
89 86 83 85 87 89 91 87 82 89 95 87 87 99 101 98 98 98 98 96 97 98 90 80 66 47 58 94 105 98 100 102 99 89 81 89 88 78 83 83 80 96
86 84 84 86 87 89 90 85 85 92 89 81 88 100 99 97 98 95 95 97 97 97 96 94 79 62 74 100 105 99 100 102 98 86 84 94 88 77 85 86 82 93
85 84 86 90 92 93 90 83 84 88 83 82 94 100 98 97 94 89 91 94 95 95 94 92 77 65 79 98 102 102 101 100 100 90 87 95 89 80 85 86 82 87
82 84 90 94 95 95 92 85 83 83 83 89 97 99 100 97 83 79 87 94 94 88 81 81 72 62 76 96 101 102 101 100 101 97 90 89 86 81 82 85 87 88
82 86 91 93 93 95 95 87 82 82 85 90 96 100 101 90 75 79 91 92 82 65 58 72 76 66 78 100 103 102 102 100 100 101 93 85 80 79 81 86 90 88
84 86 87 89 92 94 95 92 87 87 87 88 91 93 92 83 79 88 90 78 66 54 53 72 80 69 77 98 105 103 102 101 101 101 95 88 84 82 80 81 81 81
86 87 88 92 96 96 95 93 92 93 94 93 89 86 88 89 85 85 82 72 67 68 72 79 79 71 76 93 104 105 102 100 101 99 95 95 95 91 86 81 80 84
Wind_Speed
29 28 25 24 24 23 23 23 22 22 23 22 24 25 26 26 25 25 25 24 24 23 23 25 26 26 25 24 23 24 24 23 21 20 20 19 17 17 16 15 14 15
29 29 27 26 26 25 24 24 24 24 24 23 24 25 25 25 25 25 25 24 24 23 22 23 25 26 27 26 25 26 26 26 24 24 24 24 22 21 21 20 18 16
29 29 28 28 27 26 26 26 25 25 25 24 24 25 25 25 26 25 25 24 24 24 22 22 22 24 26 26 26 27 27 27 27 25 25 26 26 25 25 24 23 21
28 28 28 28 27 27 27 27 27 27 26 25 25 24 23 23 24 25 25 25 25 25 23 21 21 22 25 26 26 26 27 28 27 26 26 26 26 26 26 26 25 24
26 26 27 27 27 27 28 28 28 28 27 26 25 24 23 22 22 23 24 25 25 25 24 22 21 21 22 26 27 26 26 27 27 27 28 27 26 26 26 25 26 26
26 26 26 26 27 28 28 28 27 27 27 26 26 26 24 23 22 22 22 24 24 24 24 22 22 20 20 24 27 26 25 26 26 28 29 29 27 27 26 25 25 26
24 25 26 26 26 27 28 28 28 27 26 25 26 26 24 24 23 21 21 22 23 24 24 22 21 20 19 21 25 26 25 25 25 26 28 29 28 28 27 26 25 25
22 24 25 26 26 27 28 28 28 28 27 26 26 25 24 23 23 22 20 20 21 23 23 22 20 20 19 18 21 23 24 25 25 26 27 28 28 28 28 27 26 26
21 22 24 25 25 26 27 28 28 27 27 26 25 25 24 23 22 22 21 19 20 21 23 22 20 19 18 17 17 21 23 24 25 25 25 25 25 26 26 26 26 26
20 21 23 25 25 25 26 26 27 27 26 25 25 24 24 23 22 21 21 20 19 20 21 22 20 18 17 15 15 18 22 23 24 24 23 23 22 22 23 24 24 24
20 21 22 24 24 25 25 25 26 26 25 25 24 24 23 23 22 22 21 20 19 18 20 21 20 19 17 14 13 17 20 21 22 22 22 22 21 19 20 22 22 21
20 20 22 23 24 24 25 25 25 25 24 24 23 23 23 22 22 22 21 20 18 17 17 18 20 19 18 14 11 16 19 19 20 21 21 22 22 18 17 18 19 19
20 20 21 23 23 24 24 24 24 23 23 23 22 22 22 22 22 22 21 20 18 16 15 15 17 19 20 15 10 13 18 18 19 20 20 21 22 19 15 15 17 17
20 20 22 23 23 23 24 24 23 23 22 22 21 21 21 20 21 22 21 19 19 18 15 14 13 16 21 21 13 12 16 17 16 19 21 21 22 20 17 15 15 15
22 21 22 23 23 23 23 23 22 22 21 21 20 20 20 19 20 21 21 20 19 19 17 15 14 13 18 24 19 14 14 15 14 17 21 21 21 21 19 16 15 15
22 22 22 23 23 22 22 22 22 21 21 20 20 20 19 19 20 21 21 21 21 21 19 17 17 15 15 20 21 16 14 14 14 17 20 19 19 20 19 18 16 15
22 22 22 23 23 23 23 22 22 22 21 20 20 20 19 18 19 20 21 22 22 23 22 20 20 19 16 19 22 20 16 14 14 18 19 17 17 18 18 18 17 16
21 21 21 22 22 22 23 22 22 22 21 21 21 20 19 19 19 19 20 21 22 24 24 22 21 20 18 19 22 21 19 16 15 19 19 16 16 16 16 17 17 17
20 20 21 22 21 22 22 22 23 22 21 22 22 20 19 19 20 18 19 21 22 23 25 24 24 22 20 20 22 22 20 17 17 20 19 15 14 15 16 17 16 16
19 20 21 21 21 21 22 22 23 22 21 22 22 19 19 20 20 19 20 20 21 21 24 25 26 24 22 21 22 21 20 18 18 20 18 13 12 14 15 16 15 14
19 20 21 21 21 21 22 23 23 22 22 23 21 19 20 20 20 20 20 20 20 21 22 24 26 26 24 22 22 21 20 20 19 19 16 12 12 13 14 15 15 13
19 21 21 20 20 21 23 24 24 23 24 23 20 20 20 20 20 21 21 21 20 20 22 24 26 27 24 22 22 21 21 21 20 17 14 14 14 13 13 14 14 13
20 21 20 20 21 22 24 25 25 24 24 21 20 21 21 21 23 23 21 20 21 22 24 25 26 26 24 22 22 21 21 21 20 16 14 14 15 15 14 14 13 13
20 20 19 21 22 23 24 25 25 25 24 21 21 21 21 23 24 22 20 21 23 25 26 25 25 25 23 21 21 20 20 20 19 16 14 14 16 17 16 14 13 14
19 19 21 23 24 25 25 26 26 25 24 22 21 22 23 24 23 21 22 24 25 25 24 22 24 24 23 21 20 19 19 19 18 16 14 14 16 18 18 17 15 15
20 22 24 24 25 26 26 26 26 25 24 23 23 23 24 24 23 22 24 25 24 23 20 20 22 23 22 20 18 18 18 18 18 17 15 15 15 17 20 21 18 15
Wind_Direction
36 36 32 28 25 21 18 17 14 14 14 11 12 14 15 17 20 22 24 26 26 26 26 21 20 24 26 25 27 28 27 27 29 30 28 29 31 31 29 27 26 25
38 38 36 32 30 26 25 24 20 20 20 16 15 16 16 18 20 22 22 24 25 25 27 24 19 21 26 26 27 29 27 27 29 32 32 32 33 34 36 33 30 30
37 37 35 33 30 28 26 26 24 23 21 19 18 17 17 19 20 21 22 24 25 23 26 28 21 18 23 26 28 29 28 27 27 29 32 32 32 32 35 35 34 33
34 32 31 30 27 25 24 22 22 22 20 18 18 17 17 19 20 21 21 23 24 23 23 27 25 18 18 23 28 28 27 26 25 26 31 32 30 30 31 33 33 32
31 29 28 27 24 22 23 21 19 19 18 15 16 15 15 17 18 20 21 22 23 23 22 25 26 22 15 16 23 26 24 23 21 23 28 30 29 29 28 28 30 30
29 27 25 23 22 20 20 18 16 15 13 12 14 13 12 13 15 16 18 20 21 22 22 22 25 26 17 11 17 23 22 20 19 20 24 26 26 28 27 27 28 28
26 24 22 21 19 17 17 15 13 12 10 9 11 11 9 10 11 11 13 15 18 20 21 20 21 26 22 11 11 18 21 18 18 19 21 22 22 24 25 25 26 26
22 20 18 17 16 14 13 12 10 9 7 6 7 6 6 8 7 7 8 9 13 17 19 19 19 21 23 15 9 15 19 18 18 18 17 18 19 20 21 21 23 24
17 16 13 13 12 9 9 8 6 5 3 3 3 1 2 5 4 4 5 6 9 14 17 18 18 19 21 16 8 12 17 16 16 18 16 14 13 14 18 19 19 21
11 10 9 9 7 4 3 3 2 1 360 359 358 357 359 0 0 1 2 3 4 9 14 18 18 17 20 17 5 6 12 12 12 15 16 15 11 7 10 16 18 18
5 3 3 3 1 360 358 357 357 356 356 356 354 354 355 356 357 358 358 359 360 2 7 14 18 16 16 16 2 357 5 7 7 11 13 14 14 7 3 9 15 16
359 357 357 356 354 354 353 352 352 351 352 353 351 350 351 352 354 355 355 355 355 356 359 8 18 18 14 12 356 349 357 2 2 7 10 8 10 10 2 360 6 11
353 350 349 349 348 348 348 348 348 347 348 349 348 347 348 348 349 350 351 350 350 351 349 357 13 19 17 14 355 341 349 355 358 3 6 3 3 6 5 358 360 5
346 343 343 344 344 344 344 345 346 345 344 344 344 344 343 344 343 344 346 346 346 347 342 343 357 11 16 14 354 329 341 350 353 358 360 358 356 359 2 0 358 1
340 339 338 340 340 341 342 342 342 342 341 339 340 339 339 339 335 337 343 343 341 343 339 337 338 343 4 9 352 325 334 345 347 351 354 353 351 353 358 360 357 358
336 336 335 337 339 339 339 340 339 339 338 336 334 334 336 335 330 331 337 339 338 340 337 336 334 328 341 357 351 335 333 341 343 348 351 350 347 347 352 356 354 354
332 334 334 335 337 336 337 338 336 335 336 333 331 332 331 331 329 328 330 332 333 336 336 335 335 331 330 340 344 340 336 339 346 349 350 349 345 345 348 351 350 351
330 332 333 333 334 333 335 336 334 334 334 331 331 331 327 326 328 326 323 325 327 329 332 333 333 334 335 335 337 338 335 335 342 347 349 347 342 343 344 345 346 346
328 329 330 330 330 330 332 333 332 332 330 328 329 329 323 322 325 324 319 321 323 324 326 329 330 334 338 335 333 335 333 333 339 345 347 342 339 340 339 339 343 339
325 326 326 326 326 327 328 329 330 330 326 326 327 324 320 320 322 321 318 318 320 320 321 323 326 331 336 333 331 332 331 333 341 344 341 335 333 336 333 334 340 335
324 324 324 323 323 324 325 327 328 326 322 324 325 320 317 318 317 317 317 316 317 317 318 318 320 326 330 328 329 330 328 332 339 339 335 328 327 330 330 330 333 329
323 323 321 320 320 321 323 325 325 322 321 323 321 316 315 315 315 316 316 315 314 314 315 314 315 319 323 324 327 328 326 330 336 335 329 323 322 325 325 322 322 322
321 321 319 317 317 317 319 321 320 319 319 319 316 313 313 312 313 315 314 311 310 310 311 311 311 314 317 318 323 326 326 329 333 331 324 317 314 316 318 318 317 318
319 318 315 314 314 313 313 315 316 315 315 314 312 309 307 307 311 312 308 304 304 307 309 309 309 311 313 314 318 323 326 328 330 328 321 313 310 311 314 315 312 311
315 312 311 311 310 309 310 311 311 311 310 310 309 305 303 306 309 306 301 301 304 309 311 309 308 311 312 310 313 319 324 328 329 326 319 314 311 308 307 309 310 310
309 309 310 310 308 308 308 308 308 307 307 307 307 306 304 304 305 302 301 305 309 313 314 311 309 311 312 309 309 314 321 326 326 324 321 316 313 309 306 307 309 309